Wind_Speed
52 51 47 43 42 34 36 34 32 35 48 50 48 47 46 47 48 48 47 47 49 49 45 43 40 38 35 33 31 29 32 30 29 28 21 26 25 25
58 54 52 49 48 43 37 37 33 34 40 52 51 48 47 46 47 48 48 49 51 49 47 44 41 39 38 38 31 33 30 29 28 24 25 27 29 19
60 58 54 52 51 50 45 39 40 35 34 48 52 49 47 46 47 48 50 51 53 50 47 44 42 38 37 42 45 35 27 30 26 26 23 31 30 22
51 62 58 57 54 52 48 43 43 37 35 38 49 49 47 46 47 50 51 53 53 50 47 44 41 38 32 35 33 37 29 31 29 30 29 31 23 27
58 55 62 60 59 55 49 47 46 40 37 35 50 51 48 46 47 50 50 51 51 49 46 41 37 40 36 35 28 35 36 32 30 35 39 26 23 25
51 59 61 65 64 59 52 53 52 45 40 37 48 52 48 46 48 50 51 52 51 47 43 38 40 27 36 27 26 29 30 31 35 32 37 26 26 22
34 57 61 64 68 65 57 56 54 51 45 39 43 52 51 47 48 51 53 52 50 45 39 36 35 34 30 21 26 32 31 28 28 36 31 24 23 19
37 40 60 64 66 67 67 58 55 54 49 43 44 52 52 48 50 52 53 52 49 44 39 38 38 35 30 29 28 25 20 27 38 30 23 22 23 20
33 36 58 62 64 70 72 63 56 56 53 47 45 54 52 49 50 54 54 52 45 41 40 37 35 31 29 35 26 22 19 39 33 34 27 22 21 20
28 31 60 61 61 68 70 66 59 59 54 48 50 56 53 50 52 55 54 49 45 42 39 37 34 35 30 24 19 21 24 24 28 32 26 22 22 20
22 37 65 62 61 67 70 66 66 61 55 47 55 57 53 52 54 54 52 46 44 44 41 42 40 36 26 21 21 19 25 32 33 31 32 20 12 11
34 47 66 62 62 69 71 70 64 60 55 50 58 56 52 53 53 51 48 46 49 48 40 39 34 31 28 21 18 18 22 25 34 27 21 17 9 11
46 50 66 62 63 65 73 69 63 60 56 55 60 57 54 53 51 51 50 52 35 39 43 33 29 21 20 12 13 17 23 28 31 25 19 15 16 13
53 53 62 61 64 71 69 68 63 57 57 63 60 56 54 52 51 51 49 47 40 38 34 31 23 18 17 14 9 14 22 24 31 25 19 20 15 16
56 57 60 61 67 67 69 65 58 55 62 61 57 55 54 53 51 50 53 44 41 33 33 31 29 21 18 14 8 17 19 19 26 22 24 18 12 15
62 60 61 64 67 67 65 59 59 64 63 58 55 55 55 53 52 53 49 41 43 34 34 28 23 16 15 14 13 14 14 15 19 22 31 28 22 20
57 60 63 65 64 61 58 62 67 64 59 57 56 56 54 58 56 52 41 39 44 41 34 30 25 18 13 12 11 7 7 10 10 17 25 25 22 26
54 56 57 59 60 62 67 68 65 60 58 57 56 52 53 49 45 39 38 41 30 28 27 28 22 15 10 7 9 9 15 14 20 23 23 25 25 27
57 59 61 65 68 69 66 62 59 57 55 55 53 52 49 49 41 37 36 35 29 26 20 26 15 12 9 6 7 16 12 16 19 16 20 26 29 28
64 66 67 66 64 62 60 58 55 53 52 51 49 50 51 45 40 41 31 32 23 24 21 21 15 11 11 10 6 13 18 16 20 20 19 24 26 30
64 63 62 60 59 57 55 53 52 51 49 48 46 47 45 41 36 31 30 29 22 20 16 15 14 10 9 11 12 13 16 16 19 16 24 22 27 34
58 58 57 55 53 52 51 50 49 49 48 47 46 40 36 34 30 28 31 25 20 21 18 16 14 10 10 10 15 16 16 21 21 23 27 31 36 37
49 50 50 50 49 47 46 45 44 44 44 43 42 41 38 36 32 28 28 24 20 17 15 10 9 9 8 8 11 17 22 27 25 28 30 32 34 36
Wind_Direction
235 232 230 219 211 207 214 212 213 211 205 206 207 206 204 202 202 199 195 194 195 195 199 201 205 207 203 203 191 211 197 208 206 222 239 217 179 187
235 229 227 223 213 209 209 206 202 203 205 199 203 202 201 199 198 194 192 191 194 194 197 201 204 206 203 193 189 198 201 211 216 222 235 235 181 183
229 227 222 220 215 209 204 203 201 202 202 198 198 199 199 196 193 189 190 191 192 193 197 201 204 204 208 189 197 210 214 209 213 228 231 178 174 183
227 222 220 214 210 206 202 200 199 201 200 194 192 196 197 193 189 187 188 189 191 192 198 201 203 201 206 200 202 213 215 216 218 224 180 182 181 182
221 221 212 210 205 202 200 202 196 194 189 191 189 192 194 192 188 186 187 188 190 195 200 200 200 205 201 194 199 201 218 212 219 189 184 178 189 176
222 210 208 206 203 201 199 196 192 188 185 187 189 188 190 192 187 184 186 188 191 194 197 196 199 207 207 188 202 206 197 205 210 193 183 178 188 182
215 209 204 201 200 196 192 187 190 184 185 186 185 185 188 189 186 184 186 187 191 194 192 191 194 200 199 202 201 203 201 201 194 176 175 191 187 184
210 204 199 196 196 196 189 186 189 183 183 184 183 184 185 186 184 183 185 188 189 187 187 186 187 189 191 179 164 162 179 183 176 170 183 194 196 185
203 206 195 189 190 189 187 186 186 182 181 182 182 182 181 183 181 181 183 187 186 185 185 187 186 188 179 174 181 194 192 179 171 178 193 197 195 189
193 196 186 180 179 184 185 185 183 178 176 183 181 178 178 179 178 179 182 184 180 182 181 182 181 162 160 152 183 205 195 189 169 183 189 198 204 189
187 174 175 171 173 174 174 176 176 174 177 179 175 174 175 177 176 178 181 176 177 176 172 153 149 158 153 168 188 196 185 169 186 202 189 202 199 195
155 155 166 164 166 164 165 169 168 172 171 172 171 171 172 175 174 174 173 173 175 172 177 164 147 164 165 166 165 185 187 187 176 198 189 208 189 220
138 148 159 158 157 162 165 166 167 168 168 167 168 169 171 170 170 169 171 168 169 168 169 152 157 156 154 161 153 176 189 188 181 188 205 203 205 221
129 139 152 150 152 154 162 165 165 166 165 164 164 166 167 165 166 167 167 164 163 160 158 146 151 150 151 130 134 162 182 191 193 196 211 220 214 216
120 132 143 144 147 153 157 159 158 158 160 161 162 163 161 163 165 164 159 159 154 153 154 147 151 141 128 141 171 199 199 213 203 216 206 226 213 237
121 131 139 142 145 149 152 152 152 155 156 157 158 158 159 161 165 164 153 149 154 148 154 157 152 149 158 154 155 199 212 230 224 224 229 230 228 226
113 121 131 137 142 147 148 148 149 151 152 154 156 158 159 149 146 154 159 156 154 156 163 164 165 159 164 177 180 185 210 243 249 240 230 227 253 236
119 127 133 137 139 141 142 143 146 149 151 152 155 155 159 161 159 153 158 158 156 166 167 161 158 160 147 151 177 212 224 234 217 228 230 232 237 251
118 122 127 131 134 136 139 141 145 147 149 152 150 153 155 153 154 156 149 167 164 157 166 174 179 175 175 166 189 188 227 228 209 240 253 239 240 261
118 122 124 127 131 134 138 141 144 146 147 148 149 149 151 148 150 157 163 162 153 155 168 174 186 205 217 214 241 225 231 239 236 238 256 251 253 257
119 122 125 128 132 134 136 138 141 145 146 146 146 148 150 154 154 154 163 170 169 166 172 180 190 198 220 243 240 224 225 250 242 245 240 256 268 282
121 124 127 129 130 133 136 139 141 142 146 148 151 154 153 155 163 171 173 171 169 167 171 182 197 217 224 229 228 234 254 268 259 265 273 277 288 291
124 127 129 131 133 134 135 138 140 140 143 146 153 158 160 161 163 168 176 175 185 195 193 205 214 231 253 270 248 252 256 278 268 271 279 281 291 289
Height
5537 5546 5554 5562 5570 5576 5583 5589 5596 5602 5609 5621 5634 5644 5655 5667 5678 5688 5699 5711 5721 5731 5741 5749 5757 5765 5772 5780 5784 5791 5796 5801 5805 5809 5813 5814 5819 5824
5518 5528 5539 5550 5560 5569 5576 5584 5590 5597 5603 5613 5626 5638 5650 5661 5672 5684 5696 5707 5717 5727 5736 5744 5753 5761 5769 5777 5779 5786 5793 5799 5803 5807 5810 5812 5817 5823
5496 5510 5523 5536 5548 5559 5568 5577 5586 5593 5599 5610 5621 5634 5646 5657 5669 5681 5691 5702 5712 5723 5733 5741 5749 5758 5760 5769 5776 5785 5790 5796 5800 5804 5808 5812 5816 5821
5476 5490 5507 5521 5535 5548 5560 5570 5580 5588 5597 5606 5619 5631 5642 5654 5666 5677 5688 5698 5709 5719 5730 5738 5747 5756 5759 5767 5774 5781 5789 5793 5798 5802 5808 5810 5816 5821
5458 5471 5488 5505 5522 5537 5551 5563 5573 5584 5596 5604 5615 5626 5639 5652 5664 5675 5687 5698 5707 5718 5728 5738 5747 5755 5760 5766 5772 5779 5785 5791 5797 5800 5805 5810 5815 5820
5440 5454 5470 5489 5509 5526 5542 5555 5568 5581 5593 5602 5612 5624 5638 5650 5662 5673 5685 5695 5706 5716 5726 5737 5746 5753 5758 5765 5771 5777 5782 5790 5794 5798 5803 5809 5814 5819
5426 5438 5455 5474 5494 5515 5533 5548 5563 5577 5590 5601 5611 5623 5635 5648 5660 5672 5682 5693 5704 5715 5728 5737 5746 5753 5757 5762 5767 5774 5782 5788 5792 5798 5804 5809 5814 5819
5417 5427 5442 5461 5482 5504 5525 5542 5558 5574 5587 5599 5609 5622 5635 5647 5659 5671 5683 5694 5704 5715 5727 5736 5743 5750 5758 5762 5769 5776 5782 5786 5793 5800 5805 5810 5814 5818
5410 5418 5433 5452 5473 5495 5518 5539 5554 5572 5586 5599 5609 5621 5634 5648 5659 5670 5683 5695 5709 5719 5727 5735 5744 5753 5759 5765 5771 5777 5782 5788 5796 5801 5805 5809 5813 5818
5405 5411 5426 5448 5470 5491 5514 5536 5554 5570 5585 5596 5607 5621 5635 5649 5661 5673 5686 5698 5710 5720 5730 5739 5747 5755 5761 5767 5772 5777 5782 5787 5794 5801 5804 5809 5812 5817
5401 5407 5425 5449 5470 5491 5513 5535 5553 5570 5584 5597 5611 5624 5639 5652 5663 5677 5689 5702 5713 5722 5732 5740 5748 5755 5762 5769 5774 5778 5783 5790 5795 5800 5805 5809 5812 5815
5400 5412 5432 5454 5475 5495 5516 5537 5556 5573 5587 5601 5615 5630 5643 5655 5667 5680 5694 5706 5716 5723 5733 5744 5752 5759 5765 5770 5774 5778 5783 5788 5794 5801 5804 5807 5810 5814
5411 5424 5443 5463 5482 5502 5523 5544 5561 5576 5591 5604 5619 5633 5647 5660 5673 5686 5697 5707 5718 5730 5740 5749 5757 5763 5769 5774 5776 5779 5784 5790 5795 5800 5804 5807 5810 5813
5429 5441 5458 5476 5493 5513 5532 5551 5568 5583 5596 5611 5626 5640 5653 5666 5680 5691 5702 5715 5724 5733 5743 5751 5760 5767 5771 5773 5777 5780 5785 5790 5795 5800 5803 5805 5807 5810
5453 5465 5480 5495 5511 5528 5546 5563 5579 5593 5608 5622 5635 5648 5661 5673 5686 5698 5710 5722 5731 5740 5747 5753 5761 5766 5767 5773 5779 5783 5787 5791 5795 5797 5800 5803 5806 5808
5478 5488 5500 5513 5529 5546 5562 5576 5589 5604 5618 5632 5646 5659 5670 5681 5693 5704 5717 5725 5734 5742 5750 5757 5760 5765 5771 5775 5778 5783 5786 5790 5792 5796 5799 5801 5803 5804
5505 5513 5524 5537 5550 5564 5576 5589 5603 5618 5631 5643 5655 5667 5679 5691 5701 5712 5721 5727 5738 5745 5751 5757 5764 5769 5773 5776 5778 5782 5786 5789 5790 5793 5795 5798 5800 5799
5529 5537 5546 5557 5567 5580 5593 5606 5619 5631 5643 5655 5666 5677 5689 5700 5710 5720 5727 5734 5741 5748 5753 5759 5766 5770 5773 5775 5777 5780 5784 5786 5788 5791 5793 5794 5795 5796
5552 5559 5568 5577 5589 5600 5613 5624 5636 5647 5657 5668 5679 5689 5699 5709 5719 5726 5731 5739 5745 5750 5755 5760 5766 5771 5773 5776 5778 5780 5783 5785 5787 5789 5788 5790 5791 5792
5577 5585 5593 5602 5612 5623 5632 5642 5652 5661 5671 5680 5690 5700 5709 5718 5724 5731 5737 5743 5749 5754 5759 5763 5768 5771 5773 5775 5777 5779 5781 5783 5784 5785 5786 5786 5786 5785
5602 5609 5616 5624 5633 5642 5650 5659 5668 5676 5684 5692 5701 5709 5717 5724 5730 5736 5743 5748 5752 5756 5760 5764 5767 5770 5772 5773 5775 5777 5779 5780 5780 5780 5781 5781 5781 5780
5626 5632 5638 5646 5653 5660 5667 5674 5681 5688 5695 5702 5710 5716 5722 5728 5734 5740 5746 5750 5755 5758 5762 5765 5767 5769 5770 5772 5773 5774 5775 5776 5777 5777 5776 5775 5774 5772
5648 5652 5658 5662 5668 5674 5681 5687 5693 5700 5706 5712 5718 5724 5730 5735 5741 5745 5749 5753 5756 5758 5760 5763 5765 5767 5768 5769 5770 5771 5771 5771 5771 5771 5770 5768 5766 5763